• In Netherlands
  • List of Countries
  • For 7 days
  • Water Temperature
  • Satellite Maps
  • Weather Map
  • Weather Widgets
  • user-avatar
    Login

    Hourly Weather Tulsa

    Today, 16 January, Tuesday

    Time Temperature Precipitation Wind Pressure Humidity
    00:00 -15°C° 0 mm 7 mps 761 mmHg 49%
    01:00 -17°C° 0 mm 7 mps 761 mmHg 49%
    02:00 -17°C° 0 mm 7 mps 761 mmHg 48%
    03:00 -17°C° 0 mm 7 mps 761 mmHg 48%
    04:00 -17°C° 0 mm 6 mps 762 mmHg 48%
    05:00 -17°C° 0 mm 6 mps 762 mmHg 48%
    06:00 -17°C° 0 mm 6 mps 762 mmHg 49%
    07:00 -17°C° 0 mm 6 mps 763 mmHg 48%
    08:00 -18°C° 0 mm 6 mps 763 mmHg 47%
    09:00 -18°C° 0 mm 6 mps 763 mmHg 46%
    10:00 -17°C° 0 mm 6 mps 763 mmHg 42%
    11:00 -15°C° 0 mm 5 mps 763 mmHg 38%
    12:00 -13°C° 0 mm 5 mps 763 mmHg 34%
    13:00 -13°C° 0 mm 5 mps 762 mmHg 33%
    14:00 -12°C° 0 mm 5 mps 762 mmHg 31%
    15:00 -11°C° 0 mm 5 mps 761 mmHg 30%
    16:00 -11°C° 0 mm 4 mps 761 mmHg 33%
    17:00 -11°C° 0 mm 4 mps 761 mmHg 36%
    18:00 -12°C° 0 mm 3 mps 761 mmHg 39%
    19:00 -12°C° 0 mm 3 mps 761 mmHg 43%
    20:00 -12°C° 0 mm 3 mps 761 mmHg 46%
    21:00 -10°C° 0 mm 2 mps 761 mmHg 50%
    22:00 -12°C° 0 mm 2 mps 761 mmHg 52%
    23:00 -12°C° 0 mm 2 mps 761 mmHg 55%

    Tomorrow, 17 January, Wednesday

    Time Temperature Precipitation Wind Pressure Humidity
    00:00 -10°C° 0 mm 1 mps 761 mmHg 57%
    01:00 -10°C° 0 mm 1 mps 761 mmHg 58%
    02:00 -10°C° 0 mm 0 mps 761 mmHg 59%
    03:00 -11°C° 0 mm 0 mps 761 mmHg 60%
    04:00 -11°C° 0 mm 0 mps 760 mmHg 61%
    05:00 -11°C° 0 mm 0 mps 760 mmHg 61%
    06:00 -11°C° 0 mm 0 mps 760 mmHg 61%
    07:00 -10°C° 0 mm 1 mps 760 mmHg 58%
    08:00 -10°C° 0 mm 1 mps 760 mmHg 55%
    09:00 -9°C° 0 mm 1 mps 760 mmHg 52%
    10:00 -9°C° 0 mm 2 mps 760 mmHg 45%
    11:00 -7°C° 0 mm 2 mps 760 mmHg 38%
    12:00 -6°C° 0 mm 3 mps 759 mmHg 30%
    13:00 -5°C° 0 mm 3 mps 758 mmHg 28%
    14:00 -2°C° 0 mm 3 mps 758 mmHg 25%
    15:00 -1°C° 0 mm 3 mps 757 mmHg 22%
    16:00 -2°C° 0 mm 3 mps 756 mmHg 24%
    17:00 -4°C° 0 mm 3 mps 756 mmHg 26%
    18:00 -5°C° 0 mm 3 mps 756 mmHg 29%
    19:00 -5°C° 0 mm 3 mps 756 mmHg 29%
    20:00 -6°C° 0 mm 3 mps 756 mmHg 30%
    21:00 -6°C° 0 mm 3 mps 755 mmHg 31%
    22:00 -7°C° 0 mm 4 mps 755 mmHg 31%
    23:00 -7°C° 0 mm 4 mps 755 mmHg 30%

    Day after tomorrow, 18 January, Thursday

    Time Temperature Precipitation Wind Pressure Humidity
    00:00 -7°C° 0 mm 4 mps 754 mmHg 30%
    01:00 -7°C° 0 mm 5 mps 754 mmHg 30%
    02:00 -7°C° 0 mm 5 mps 754 mmHg 30%
    03:00 -7°C° 0 mm 5 mps 753 mmHg 31%
    04:00 -7°C° 0 mm 5 mps 753 mmHg 31%
    05:00 -7°C° 0 mm 5 mps 752 mmHg 31%
    06:00 -7°C° 0 mm 5 mps 752 mmHg 31%
    07:00 -6°C° 0 mm 6 mps 752 mmHg 30%
    08:00 -5°C° 0 mm 6 mps 752 mmHg 30%
    09:00 -5°C° 0 mm 6 mps 752 mmHg 29%
    10:00 -3°C° 0 mm 7 mps 751 mmHg 28%
    11:00 -1°C° 0 mm 7 mps 751 mmHg 27%
    12:00 +2°C° 0 mm 7 mps 750 mmHg 26%
    13:00 +4°C° 0 mm 7 mps 749 mmHg 28%
    14:00 +5°C° 0 mm 7 mps 748 mmHg 29%
    15:00 +6°C° 0 mm 7 mps 747 mmHg 30%
    16:00 +4°C° 0 mm 6 mps 747 mmHg 36%
    17:00 +2°C° 0 mm 5 mps 747 mmHg 42%
    18:00 0°C° 0 mm 5 mps 747 mmHg 48%
    19:00 0°C° 0 mm 5 mps 747 mmHg 50%
    20:00 -1°C° 0 mm 5 mps 747 mmHg 53%
    21:00 -1°C° 0 mm 5 mps 747 mmHg 55%
    22:00 -1°C° 0 mm 5 mps 747 mmHg 56%
    23:00 -2°C° 0 mm 5 mps 746 mmHg 57%

    19 January, Friday

    Time Temperature Precipitation Wind Pressure Humidity
    00:00 -2°C° 0 mm 5 mps 746 mmHg 58%
    01:00 -2°C° 0 mm 5 mps 746 mmHg 60%
    02:00 -2°C° 0 mm 5 mps 745 mmHg 61%
    03:00 -4°C° 0 mm 5 mps 745 mmHg 63%
    04:00 -4°C° 0 mm 5 mps 745 mmHg 66%
    05:00 -4°C° 0 mm 5 mps 744 mmHg 70%
    06:00 -4°C° 0 mm 5 mps 744 mmHg 73%
    07:00 -2°C° 0 mm 5 mps 744 mmHg 73%
    08:00 -3°C° 0 mm 6 mps 744 mmHg 73%
    09:00 -2°C° 0 mm 6 mps 744 mmHg 74%
    10:00 +1°C° 0 mm 6 mps 744 mmHg 68%
    11:00 +4°C° 0 mm 7 mps 743 mmHg 63%
    12:00 +6°C° 0 mm 7 mps 743 mmHg 58%
    13:00 +8°C° 0 mm 7 mps 742 mmHg 57%
    14:00 +9°C° 0 mm 8 mps 741 mmHg 55%
    15:00 +10°C° 0 mm 8 mps 740 mmHg 54%
    16:00 +9°C° 0 mm 7 mps 740 mmHg 62%
    17:00 +8°C° 0 mm 7 mps 740 mmHg 71%
    18:00 +5°C° 0 mm 6 mps 740 mmHg 79%
    19:00 +6°C° 0 mm 7 mps 739 mmHg 83%
    20:00 +6°C° 0 mm 8 mps 739 mmHg 87%
    21:00 +6°C° 0 mm 9 mps 739 mmHg 91%
    22:00 +7°C° 0 mm 9 mps 739 mmHg 90%
    23:00 +7°C° 0 mm 10 mps 739 mmHg 89%

    20 January, Saturday

    Time Temperature Precipitation Wind Pressure Humidity
    00:00 +8°C° 0 mm 10 mps 738 mmHg 88%
    01:00 +8°C° 0 mm 10 mps 738 mmHg 87%
    02:00 +9°C° 0 mm 10 mps 738 mmHg 87%
    03:00 +9°C° 0 mm 10 mps 737 mmHg 86%
    04:00 +9°C° 0 mm 10 mps 737 mmHg 86%
    05:00 +9°C° 0 mm 10 mps 737 mmHg 86%
    06:00 +11°C° 0 mm 10 mps 737 mmHg 85%
    07:00 +11°C° 0 mm 10 mps 737 mmHg 84%
    08:00 +11°C° 0 mm 10 mps 737 mmHg 84%
    09:00 +11°C° 0 mm 10 mps 738 mmHg 83%
    10:00 +13°C° 0 mm 10 mps 737 mmHg 75%
    11:00 +14°C° 0 mm 10 mps 737 mmHg 68%
    12:00 +17°C° 0 mm 11 mps 737 mmHg 61%
    13:00 +17°C° 0 mm 10 mps 736 mmHg 59%
    14:00 +18°C° 0 mm 10 mps 735 mmHg 56%
    15:00 +19°C° 0 mm 10 mps 735 mmHg 54%
    16:00 +17°C° 0 mm 9 mps 735 mmHg 59%
    17:00 +16°C° 0 mm 8 mps 735 mmHg 64%
    18:00 +15°C° 0 mm 7 mps 735 mmHg 69%
    19:00 +15°C° 0 mm 7 mps 735 mmHg 74%
    20:00 +15°C° 0 mm 8 mps 735 mmHg 79%
    21:00 +15°C° 0 mm 9 mps 735 mmHg 84%
    22:00 +15°C° 0 mm 9 mps 735 mmHg 84%
    23:00 +16°C° 0 mm 10 mps 734 mmHg 84%

    21 January, Sunday

    Time Temperature Precipitation Wind Pressure Humidity
    00:00 +16°C° 0 mm 10 mps 734 mmHg 84%
    01:00 +16°C° 0.1 mm 10 mps 734 mmHg 82%
    02:00 +16°C° 0.1 mm 10 mps 734 mmHg 80%
    03:00 +16°C° 0.1 mm 9 mps 734 mmHg 79%
    04:00 +15°C° 0 mm 9 mps 734 mmHg 71%
    05:00 +13°C° 0 mm 8 mps 734 mmHg 64%
    06:00 +14°C° 0 mm 7 mps 734 mmHg 56%
    07:00 +12°C° 0 mm 7 mps 735 mmHg 49%
    08:00 +11°C° 0 mm 7 mps 736 mmHg 41%
    09:00 +10°C° 0 mm 7 mps 737 mmHg 34%
    10:00 +11°C° 0 mm 7 mps 738 mmHg 39%
    11:00 +11°C° 0 mm 7 mps 738 mmHg 43%
    12:00 +11°C° 0 mm 8 mps 739 mmHg 48%
    13:00 +11°C° 0 mm 7 mps 739 mmHg 48%
    14:00 +10°C° 0 mm 7 mps 740 mmHg 47%
    15:00 +10°C° 0 mm 7 mps 740 mmHg 47%
    16:00 +9°C° 0 mm 6 mps 741 mmHg 49%
    17:00 +8°C° 0 mm 6 mps 742 mmHg 52%
    18:00 +6°C° 0 mm 5 mps 743 mmHg 54%
    19:00 +6°C° 0 mm 4 mps 744 mmHg 56%
    20:00 +5°C° 0 mm 4 mps 744 mmHg 58%
    21:00 +4°C° 0 mm 4 mps 745 mmHg 60%
    22:00 +3°C° 0 mm 3 mps 745 mmHg 62%
    23:00 +3°C° 0 mm 3 mps 746 mmHg 64%
    Show more